Location: El Frío
(10.0713°N, 67.9111°W)
Time: 19:15:28
(UTC+00:00)

SPOT 1/Viking Rocket - Pass Details

Date: 11 December 2025
Orbit: 772 x 790 km, 98.2° (Epoch: 20 January)

Event Time Altitude Azimuth Distance (km) Brightness Sun altitude
Rises 22:25:31 0° 145° (SE) 3,269 6.6 -4.0°
Reaches altitude 10° 22:28:07 10° 134° (SE) 2,343 5.8 -4.6°
Maximum altitude 22:32:31 28° 76° (ENE) 1,430 4.4 -5.6°
Drops below altitude 10° 22:36:54 10° 18° (NNE) 2,346 5.6 -6.6°
Sets 22:39:30 0° 7° (N) 3,275 6.5 -7.2°
